User: anonymous   Login
Location: Unspecified
(0.0000°N, 0.0000°E)
Time: 14:06:59
(UTC+01:00)
Language:

Cosmos 1933 - Orbit

View from above orbital plane
View from above orbital plane
View from above satellite
View from above satellite

Ground track
Ground track

The orbit data is extracted from the following two-line orbital elements,

1 18958U 88020A   15057.47398451  .00001642  00000-0  12404-3 0  9995
2 18958 082.5310 195.3553 0010928 260.5307 099.4683 15.01721832465123
Epoch (UTC): 26 February 2015 11:22:32
Eccentricity: 0.0010928
inclination: 82.5310°
perigee height: 554 km
apogee height: 569 km
right ascension of ascending node: 195.3553°
argument of perigee: 260.5307°
revolutions per day: 15.01721832
mean anomaly at epoch: 99.4683°
orbit number at epoch: 46512

The dashed part of the orbit path shows where the satellite is in the earth's shadow,  

DLR